Regional Weather Roundup
Issued by NWS

Home | Current Version | Previous Version | Graphics & Text | Print | Product List | Glossary On
Versions: 1 2 3 4 5 6 7 8 9 10 11 12 13 14 15 16 17 18 19 20 21 22 23 24 25 26 27 28 29 30 31 32 33 34 35 36 37 38 39 40 41 42 43 44 45 46 47 48 49 50
000
ASUS43 KOAX 070002
RWRNE

WEATHER ROUNDUP FOR NEBRASKA
NATIONAL WEATHER SERVICE OMAHA NE
600 PM CST SAT FEB 06 2016

NOTES: SATELLITE DATA IS BEING USED TO AUGMENT CLOUD COVER ABOVE
       12000 FEET.
       "FAIR" INDICATES FEW OR NO CLOUDS BELOW 12,000 FEET WITH NO
       SIGNIFICANT WEATHER AND/OR OBSTRUCTIONS TO VISIBILITY.

  * THESE STATIONS DO NOT REPORT WEATHER SUCH AS RAIN...SNOW OR FOG.

NEZ001>004-019>022-054>056-070100-
NEBRASKA PANHANDLE

CITY           SKY/WX    TMP DP  RH WIND       PRES   REMARKS
SCOTTSBLUFF    CLOUDY    40  25  55 W22G30    30.00F WCI  30
6HR MIN TEMP:  39; 6HR MAX TEMP:  44;

ALLIANCE       CLOUDY    37  27  67 W21       29.94S WCI  26
6HR MIN TEMP:  33; 6HR MAX TEMP:  38;

CHADRON        CLOUDY    41  27  57 W3        29.97R
6HR MIN TEMP:  36; 6HR MAX TEMP:  49;

SIDNEY         CLEAR     39  29  67 W18       30.01S WCI  30
6HR MIN TEMP:  36; 6HR MAX TEMP:  42;

$$

NEZ057>060-069>072-079>082-070100-
SOUTHWEST NEBRASKA

CITY           SKY/WX    TMP DP  RH WIND       PRES   REMARKS
NORTH PLATTE   CLOUDY    38  25  59 W12       29.98F WCI  30
6HR MIN TEMP:  30; 6HR MAX TEMP:  39;

IMPERIAL       CLOUDY    36  26  67 SW10      30.02F WCI  28
6HR MIN TEMP:  31; 6HR MAX TEMP:  38;

MCCOOK         CLOUDY    39  27  62 SW13      30.04F WCI  31
6HR MIN TEMP:  28; 6HR MAX TEMP:  39;

$$

NEZ005>010-023>029-035>040-094-070100-
NORTH CENTRAL NEBRASKA

CITY           SKY/WX    TMP DP  RH WIND       PRES   REMARKS
VALENTINE      CLOUDY    41  28  60 W13       29.88F
6HR MIN TEMP:  41; 6HR MAX TEMP:  47;

BROKEN BOW     CLOUDY    38  27  64 W13       29.96R WCI  30
6HR MIN TEMP:  33; 6HR MAX TEMP:  38;

ORD            CLOUDY    37  28  70 SW16      29.94S WCI  28
6HR MIN TEMP:  33; 6HR MAX TEMP:  40;

$$

NEZ041-046>049-061>064-073>077-083>087-070100-
SOUTH CENTRAL NEBRASKA

CITY           SKY/WX    TMP DP  RH WIND       PRES   REMARKS
GRAND ISLAND   CLOUDY    34  24  67 SW20      29.99F WCI  23
6HR MIN TEMP:  32; 6HR MAX TEMP:  37;

HASTINGS       PTCLDY    35  24  64 SW15G24   29.99F WCI  25
6HR MIN TEMP:  28; 6HR MAX TEMP:  36;

$$

NEZ011>018-030>034-042>045-070100-
NORTHEAST NEBRASKA

CITY           SKY/WX    TMP DP  RH WIND       PRES   REMARKS
NORFOLK        CLOUDY    35  27  72 SW12      29.94R WCI  27
6HR MIN TEMP:  34; 6HR MAX TEMP:  39;

COLUMBUS *     PTCLDY    34  19  55 S15       29.96F WCI  24
TEKAMAH        PTCLDY    34  27  75 S21       29.96F WCI  22
6HR MIN TEMP:  29; 6HR MAX TEMP:  36;

$$

NEZ050>053-065>068-078-088>093-070100-
SOUTHEAST NEBRASKA

CITY           SKY/WX    TMP DP  RH WIND       PRES   REMARKS
LINCOLN        CLOUDY    37  24  59 SW18      30.04F WCI  27
6HR MIN TEMP:  33; 6HR MAX TEMP:  39;

OMAHA EPPLEY   CLOUDY    39  27  62 S15       30.02F WCI  31
6HR MIN TEMP:  35; 6HR MAX TEMP:  41;

FALLS CITY     CLOUDY    43  28  55 S10       30.11F
6HR MIN TEMP:  43; 6HR MAX TEMP:  48;

$$

NEZ044-045-051>053-067-070100-
OMAHA AREA

CITY           SKY/WX    TMP DP  RH WIND       PRES   REMARKS
OMAHA EPPLEY   CLOUDY    39  27  62 S15       30.02F WCI  31
6HR MIN TEMP:  35; 6HR MAX TEMP:  41;

OFFUTT AFB     CLOUDY    38  30  71 S12       30.02F WCI  31
$$



USA.gov is the U.S. government's official web portal to all federal, state and local government web resources and services.